ONEWEB-0256 (48974 NORAD) Tracking and Keplerian Element Data

This shows tracking and keplerian element data for the satellite.

Feedback or suggestion? Click here.




ElementValue
Catalog48974
NameONEWEB-0256
Epoch Orbit362
Epoch Day210.91668981
Epoch Year2021
RAAN227.5456
Inclination87.4387
Eccentricity0.0012036
Argument of Perigee156.9279
Mean Anonmoly88.431
Mean Motion15.01064549
Decay Rate0.00072118
L11 48974U 21060H 21210.91668981 .00072118 00000-0 55831-2 0 9998
L22 48974 87.4387 227.5456 0012036 156.9279 88.4310 15.01064549 3623

Live tracking and technical data element details for ONEWEB-0256 (NORAD 48974). ONEWEB-0256 can be tracked NOW for your location showing map with azimuth and elevation plus other details from your city location.

Track the satellite on the map from your city or location and see movement details for azimuth, elevation, latitude, longitude, range, height, and movement on the map or in text.







IsCatalogInMostPopularTable: catalog: 48974, numindb: 3
Update: records affected: 1



GetName: 48974 ONEWEB-0256

Hit Count: updated at: Sat, 31 Jul 2021 15:27:29 GMT